Location: Bocianicha
(51.5066°N, 19.2563°E)
Time: 14:33:18
(UTC+00:00)

Cosmos 2208 Rocket - Pass Details

Date: 15 June 2025
Orbit: 751 x 801 km, 74.0° (Epoch: 17 July)

Event Time Altitude Azimuth Distance (km) Brightness Sun altitude
Rises 00:48:50 0° 335° (NNW) 3,216 7.8 -10.3°
Reaches altitude 10° 00:51:13 10° 337° (NNW) 2,286 7.0 -10.1°
Maximum altitude 00:56:24 80° 64° (ENE) 772 4.1 -9.7°
Drops below altitude 10° 01:01:34 10° 152° (SSE) 2,277 6.2 -9.3°
Sets 01:03:56 0° 154° (SSE) 3,203 6.9 -9.1°
